Location: Johnson City
(36.3130°N, 82.3540°W)
Time: 11:55:46
(UTC-04:00)

ISS - Visible Passes

Search period start: 12 May 2021 00:00
Search period end: 22 May 2021 00:00
Orbit: 417 x 422 km, 51.6° (Epoch: 12 May)

Date Brightness Start Highest point End Pass type
(mag) Time Alt. Az. Time Alt. Az. Time Alt. Az.
12 May -0.5 04:41:52 10° N 04:43:38 13° NNE 04:45:24 10° NE visible
13 May -0.1 03:55:40 10° NNE 03:55:56 10° NNE 03:56:13 10° NNE visible
13 May -2.5 05:30:11 10° NW 05:33:27 45° NE 05:36:42 10° ESE visible
13 May -2.7 22:11:28 10° SW 22:13:27 33° SSW 22:13:27 33° SSW visible
14 May -1.5 04:42:58 10° NNW 04:45:55 28° NNE 04:48:53 10° E visible
14 May -3.1 21:24:23 10° SSW 21:27:25 33° SE 21:30:29 10° ENE visible
14 May -1.4 23:01:28 10° W 23:04:15 24° NNW 23:07:04 10° NNE visible
15 May -0.9 03:55:51 10° NNW 03:58:20 19° NNE 04:00:49 10° ENE visible
15 May -3.6 05:32:03 10° WNW 05:35:21 51° SW 05:38:38 10° SSE visible
15 May -2.2 22:13:34 10° WSW 22:16:43 38° NW 22:19:53 10° NE visible
16 May -0.4 03:08:55 10° N 03:10:42 13° NNE 03:12:28 10° NE visible
16 May -3.8 04:44:35 10° NW 04:47:57 83° NE 04:51:19 10° SE visible
16 May -3.4 21:25:54 10° WSW 21:29:14 67° NW 21:32:35 10° NE visible
16 May -0.3 23:05:09 10° NW 23:06:35 12° NNW 23:08:00 10° N visible
17 May0.002:26:41ENE02:26:41ENE02:21:42Nvisible
17 May -2.7 04:00:15 44° NNE 04:00:30 45° NE 04:03:45 10° ESE visible
17 May -2.1 05:34:58 10° W 05:37:01 15° SW 05:39:03 10° SSW visible
17 May -0.6 22:16:40 10° WNW 22:18:55 17° NNW 22:21:10 10° NNE visible
18 May -1.2 21:28:31 10° W 21:31:18 24° NNW 21:34:06 10° NNE visible
20 May -0.5 21:32:13 10° NW 21:33:37 12° NNW 21:35:01 10° N visible
